Angel Fire, NM

8:13 PM MST on December 15, 2019 (GMT -0700)
Angel Fire

Weather History for KAXX - October, 2019

Change the Weather History Date:

Saturday, October 5, 2019

  Actual Average (WUND) Record (WUND)
Temperature  
Mean Temperature 54 °F -  
Max Temperature 63 °F - - (-1)
Min Temperature 44 °F - - (-1)
Degree Days  
Heating Degree Days 12    
Growing Degree Days 4 (Base 50)    
Moisture  
Dew Point 25 °F    
Average Humidity 42    
Maximum Humidity 80    
Minimum Humidity 12    
Precipitation  
Precipitation 0.00 in - - ()
Sea Level Pressure  
Sea Level Pressure 30.29 in    
Wind  
Wind Speed 8 mph (WSW)    
Max Wind Speed 18 mph    
Max Gust Speed 32 mph    
Visibility 10 miles    
Events      
Averages and records for this station are not official NWS values.
T = Trace of Precipitation, MM = Missing Value Source: NWS Daily Summary

Daily Weather History Graph

Daily Weather History Graph

Search for Another Location

Airport or City:

Astronomy

Oct. 05, 2019 Rise Set
Actual Time 6:59 AM MDT 6:39 PM MDT
Civil Twilight 6:33 AM MDT 7:04 PM MDT
Nautical Twilight 6:03 AM MDT 7:34 PM MDT
Astronomical Twilight 5:33 AM MDT 8:04 PM MDT
Moon 2:18 PM MDT (10/5) No Moon Set
Length of Visible Light 12h 31m
Length of Day
11h 39m
Waxing Crescent, 50% of the Moon is Illuminated
Oct 5
Waxing Crescent
Oct 13
Full
Oct 21
Last Quarter
Oct 27
New
Nov 4
First Quarter

Hourly Weather History & Observations

Time (MDT) Temp. Windchill Dew Point Humidity Pressure Visibility Wind Dir Wind Speed Gust Speed Precip Events Conditions
12:15 AM 48.9 °F - 42.8 °F 79% 30.28 in 10.0 mi West 4.6 mph - N/A   Clear
12:35 AM 48.7 °F - 42.3 °F 78% 30.28 in 10.0 mi West 4.6 mph - N/A   Clear
12:55 AM 48.4 °F - 42.3 °F 79% 30.28 in 10.0 mi West 6.9 mph - N/A   Clear
1:15 AM 49.1 °F - 42.4 °F 78% 30.28 in 10.0 mi West 8.1 mph - N/A   Clear
1:35 AM 48.7 °F - 42.6 °F 79% 30.28 in 10.0 mi WNW 10.4 mph 17.3 mph N/A   Clear
1:55 AM 48.2 °F - 42.3 °F 80% 30.28 in 10.0 mi WNW 6.9 mph 16.1 mph N/A   Clear
2:15 AM 48.4 °F - 41.9 °F 78% 30.28 in 10.0 mi West 9.2 mph - N/A   Clear
2:35 AM 48.4 °F - 41.4 °F 77% 30.28 in 10.0 mi Calm Calm - N/A   Clear
2:55 AM 48.6 °F - 42.1 °F 78% 30.28 in 10.0 mi West 3.5 mph - N/A   Clear
3:15 AM 48.4 °F - 42.1 °F 79% 30.28 in 10.0 mi West 5.8 mph - N/A   Clear
3:35 AM 48.2 °F - 41.7 °F 78% 30.27 in 10.0 mi SSW 5.8 mph - N/A   Clear
3:55 AM 45.9 °F - 39.9 °F 80% 30.27 in 10.0 mi Calm Calm - N/A   Clear
4:15 AM 47.3 °F - 40.1 °F 76% 30.27 in 10.0 mi West 3.5 mph - N/A   Clear
4:35 AM 48.2 °F - 40.1 °F 74% 30.26 in 10.0 mi WSW 6.9 mph - N/A   Clear
4:55 AM 47.8 °F - 40.3 °F 75% 30.27 in 10.0 mi WSW 9.2 mph - N/A   Clear
5:15 AM 48.4 °F - 39.4 °F 71% 30.27 in 10.0 mi West 12.7 mph 20.7 mph N/A   Clear
5:35 AM 48.6 °F - 38.5 °F 68% 30.28 in 10.0 mi WSW 11.5 mph 21.9 mph N/A   Clear
5:55 AM 48.0 °F - 37.8 °F 68% 30.29 in 10.0 mi West 12.7 mph 18.4 mph N/A   Clear
6:15 AM 47.1 °F - 38.1 °F 71% 30.29 in 10.0 mi WSW 11.5 mph 18.4 mph N/A   Clear
6:35 AM 47.3 °F - 38.3 °F 71% 30.31 in 10.0 mi Calm Calm - N/A   Clear
6:55 AM 44.1 °F 42.5 °F 36.7 °F 75% 30.32 in 10.0 mi WSW 3.5 mph - N/A   Clear
7:15 AM 44.2 °F - 36.5 °F 74% 30.32 in 10.0 mi Calm Calm - N/A   Clear
7:35 AM 45.5 °F 44.2 °F 36.7 °F 71% 30.33 in 10.0 mi ENE 3.5 mph - N/A   Clear
7:55 AM 46.9 °F - 38.1 °F 71% 30.33 in 10.0 mi NE 4.6 mph - N/A   Clear
8:15 AM 48.7 °F - 36.9 °F 64% 30.33 in 10.0 mi SSW 4.6 mph - N/A   Clear
8:35 AM 49.5 °F - 35.6 °F 59% 30.33 in 10.0 mi Calm Calm - N/A   Clear
8:55 AM 50.5 °F - 35.2 °F 56% 30.33 in 10.0 mi WSW 9.2 mph 18.4 mph N/A   Clear
9:15 AM 51.4 °F - 34.7 °F 53% 30.33 in 10.0 mi West 10.4 mph 20.7 mph N/A   Clear
9:35 AM 52.0 °F - 34.7 °F 52% 30.33 in 10.0 mi WSW 17.3 mph 23.0 mph N/A   Clear
9:55 AM 52.3 °F - 34.2 °F 50% 30.33 in 10.0 mi West 16.1 mph 25.3 mph N/A   Clear
10:15 AM 52.7 °F - 34.0 °F 49% 30.34 in 10.0 mi West 18.4 mph 27.6 mph N/A   Clear
10:35 AM 53.8 °F - 32.4 °F 44% 30.34 in 10.0 mi West 18.4 mph 24.2 mph N/A   Clear
10:55 AM 55.6 °F - 32.2 °F 41% 30.35 in 10.0 mi WNW 16.1 mph 24.2 mph N/A   Clear
11:15 AM 56.5 °F - 31.3 °F 38% 30.34 in 10.0 mi WSW 10.4 mph 20.7 mph N/A   Clear
11:35 AM 56.7 °F - 29.8 °F 36% 30.34 in 10.0 mi West 13.8 mph 24.2 mph N/A   Clear
11:55 AM 58.3 °F - 26.6 °F 30% 30.33 in 10.0 mi West 11.5 mph 20.7 mph N/A   Clear
12:15 PM 58.5 °F - 23.2 °F 26% 30.33 in 10.0 mi West 18.4 mph 24.2 mph N/A   Clear
12:35 PM 59.0 °F - 23.5 °F 26% 30.33 in 10.0 mi West 16.1 mph 23.0 mph N/A   Clear
12:55 PM 60.1 °F - 23.4 °F 24% 30.33 in 10.0 mi West 12.7 mph 21.9 mph N/A   Clear
1:15 PM 60.1 °F - 25.0 °F 26% 30.32 in 10.0 mi WNW 10.4 mph 19.6 mph N/A   Clear
1:35 PM 61.3 °F - 27.0 °F 27% 30.31 in 10.0 mi West 10.4 mph 17.3 mph N/A   Clear
1:55 PM 61.0 °F - 26.6 °F 27% 30.30 in 10.0 mi WSW 9.2 mph 23.0 mph N/A   Clear
2:15 PM 61.0 °F - 26.1 °F 26% 30.30 in 10.0 mi WSW 11.5 mph 17.3 mph N/A   Clear
2:35 PM 61.2 °F - 23.9 °F 24% 30.29 in 10.0 mi West 11.5 mph 19.6 mph N/A   Clear
2:55 PM 61.3 °F - 23.2 °F 23% 30.29 in 10.0 mi WSW 12.7 mph 24.2 mph N/A   Clear
3:15 PM 61.5 °F - 23.7 °F 24% 30.28 in 10.0 mi West 13.8 mph 21.9 mph N/A   Clear
3:35 PM 61.7 °F - 23.0 °F 23% 30.27 in 10.0 mi West 12.7 mph 32.2 mph N/A   Clear
3:55 PM 62.1 °F - 21.4 °F 21% 30.26 in 10.0 mi West 15.0 mph 21.9 mph N/A   Clear
4:10 PM 62.6 °F - 17.8 °F 18% 30.25 in 10.0 mi WSW 13.8 mph 25.3 mph N/A   Clear
4:35 PM 63.0 °F - 15.6 °F 16% 30.25 in 10.0 mi WNW 11.5 mph 26.5 mph N/A   Clear
4:55 PM 62.6 °F - 12.6 °F 14% 30.25 in 10.0 mi West 8.1 mph 29.9 mph N/A   Clear
5:15 PM 61.5 °F - 14.7 °F 16% 30.25 in 10.0 mi West 13.8 mph 26.5 mph N/A   Clear
5:35 PM 61.0 °F - 12.9 °F 15% 30.25 in 10.0 mi SW 12.7 mph 17.3 mph N/A   Clear
5:55 PM 59.7 °F - 13.6 °F 16% 30.25 in 10.0 mi WSW 9.2 mph - N/A   Clear
6:15 PM 58.1 °F - 10.4 °F 15% 30.25 in 10.0 mi West 8.1 mph - N/A   Clear
6:35 PM 56.5 °F - 9.1 °F 15% 30.25 in 10.0 mi West 4.6 mph - N/A   Clear
6:55 PM 55.2 °F - 10.0 °F 17% 30.25 in 10.0 mi SW 6.9 mph - N/A   Clear
7:15 PM 53.4 °F - 10.0 °F 18% 30.26 in 10.0 mi WSW 10.4 mph - N/A   Clear
7:35 PM 53.2 °F - 7.3 °F 16% 30.26 in 10.0 mi Calm Calm - N/A   Clear
7:55 PM 53.4 °F - 6.6 °F 15% 30.26 in 10.0 mi SSE 3.5 mph - N/A   Clear
8:15 PM 52.0 °F - 5.7 °F 15% 30.27 in 10.0 mi Calm Calm - N/A   Clear
8:35 PM 51.8 °F - 5.4 °F 15% 30.27 in 10.0 mi SSW 3.5 mph - N/A   Clear
8:55 PM 49.3 °F - 8.2 °F 19% 30.27 in 10.0 mi Calm Calm - N/A   Clear
9:15 PM 49.1 °F - 8.4 °F 19% 30.28 in 10.0 mi SE 6.9 mph - N/A   Clear
9:35 PM 48.4 °F - 7.3 °F 19% 30.27 in 10.0 mi Calm Calm - N/A   Clear
9:55 PM 50.9 °F - 2.3 °F 14% 30.27 in 10.0 mi ENE 6.9 mph - N/A   Clear
10:15 PM 51.3 °F - 0.3 °F 12% 30.27 in 10.0 mi WNW 5.8 mph - N/A   Clear
10:35 PM 50.4 °F - -0.0 °F 13% 30.27 in 10.0 mi West 4.6 mph - N/A   Clear
10:55 PM 50.2 °F - -0.8 °F 12% 30.26 in 10.0 mi SW 5.8 mph - N/A   Clear
11:15 PM 50.7 °F - -0.9 °F 12% 30.26 in 10.0 mi SW 10.4 mph - N/A   Clear
11:35 PM 49.1 °F - 0.3 °F 13% 30.26 in 10.0 mi SSW 9.2 mph - N/A   Clear
11:55 PM 47.7 °F - 1.4 °F 15% 30.25 in 10.0 mi South 10.4 mph 16.1 mph N/A   Clear